Regional Weather Roundup
Issued by NWS

Home | Current Version | Previous Version | Graphics & Text | Print | Product List | Glossary On
Versions: 1 2 3 4 5 6 7 8 9 10 11 12 13 14 15 16 17 18 19 20 21 22 23 24 25 26 27 28 29 30 31 32 33 34 35 36 37 38 39 40 41 42 43 44 45 46 47 48 49 50
000
ASUS43 KOAX 011802
RWRNE

WEATHER ROUNDUP FOR NEBRASKA
NATIONAL WEATHER SERVICE OMAHA NE
100 PM CDT TUE SEP 01 2015

NOTES: SATELLITE DATA IS BEING USED TO AUGMENT CLOUD COVER ABOVE
       12000 FEET.
       "FAIR" INDICATES FEW OR NO CLOUDS BELOW 12,000 FEET WITH NO
       SIGNIFICANT WEATHER AND/OR OBSTRUCTIONS TO VISIBILITY.

  * THESE STATIONS DO NOT REPORT WEATHER SUCH AS RAIN...SNOW OR FOG.

NEZ001>004-019>022-054>056-011900-
NEBRASKA PANHANDLE

CITY           SKY/WX    TMP DP  RH WIND       PRES   REMARKS
SCOTTSBLUFF    SUNNY     85  50  29 W6        29.98F
6HR MIN TEMP:  55; 6HR MAX TEMP:  85;

ALLIANCE       SUNNY     89  43  20 VRB7      29.96F
6HR MIN TEMP:  54; 6HR MAX TEMP:  89;

CHADRON        SUNNY     90  46  21 W9        29.90F
6HR MIN TEMP:  58; 6HR MAX TEMP:  90;

KIMBALL        SUNNY     83  41  22 W3        30.03F
SIDNEY         SUNNY     89  44  20 N9        30.01F
6HR MIN TEMP:  56; 6HR MAX TEMP:  90;

$$

NEZ057>060-069>072-079>082-011900-
SOUTHWEST NEBRASKA

CITY           SKY/WX    TMP DP  RH WIND       PRES   REMARKS
NORTH PLATTE   MOSUNNY   85  62  46 NW9       29.93F
6HR MIN TEMP:  67; 6HR MAX TEMP:  86; 6HR PCP: TRACE;

IMPERIAL       SUNNY     86  54  33 VRB7      29.97F
6HR MIN TEMP:  59; 6HR MAX TEMP:  86;

LEXINGTON      MOSUNNY   84  62  46 CALM      29.92F
MC COOK        SUNNY     87  60  40 W5        29.94F
6HR MIN TEMP:  65; 6HR MAX TEMP:  88;

OGALLALA       MOSUNNY   83  55  38 SW8       29.97F
$$

NEZ005>010-023>029-035>040-094-011900-
NORTH CENTRAL NEBRASKA

CITY           SKY/WX    TMP DP  RH WIND       PRES   REMARKS
VALENTINE      MOSUNNY   85  63  47 VRB7      29.89F
6HR MIN TEMP:  61; 6HR MAX TEMP:  85; 6HR PCP: TRACE;

AINSWORTH      PTSUNNY   81  66  59 SE15      29.91F
BROKEN BOW     MOSUNNY   88  62  41 NE7       29.92F
6HR MIN TEMP:  67; 6HR MAX TEMP:  88;

O`NEILL        CLOUDY    76  71  83 S5        29.92S
ORD            MOSUNNY   86  61  42 VRB3      29.89F
6HR MIN TEMP:  65; 6HR MAX TEMP:  86;

THEDFORD       PTSUNNY   85  62  45 S8        29.95F
$$

NEZ041-046>049-061>064-073>077-083>087-011900-
SOUTH CENTRAL NEBRASKA

CITY           SKY/WX    TMP DP  RH WIND       PRES   REMARKS
GRAND ISLAND   SUNNY     87  63  44 S15       29.93F
6HR MIN TEMP:  69; 6HR MAX TEMP:  87;

AURORA         MOSUNNY   85  65  50 SW10      29.93F
HASTINGS       MOSUNNY   85  64  49 SW8       29.93F
6HR MIN TEMP:  67; 6HR MAX TEMP:  85;

HEBRON         SUNNY     88  62  41 S16       29.94F
HOLDREGE       MOSUNNY   82  59  45 S6        29.94F
KEARNEY *      MOSUNNY   82  63  51 S10       29.93F
YORK           MOSUNNY   84  68  58 S8        29.93F
$$

NEZ011>018-030>034-042>045-011900-
NORTHEAST NEBRASKA

CITY           SKY/WX    TMP DP  RH WIND       PRES   REMARKS
NORFOLK        CLOUDY    80  66  62 SW13      29.91S
6HR MIN TEMP:  67; 6HR MAX TEMP:  81;

ALBION         PTSUNNY   80  65  60 S9        29.91F
BLAIR          FAIR      84  69  59 SW12G17   29.94S
COLUMBUS *     PTSUNNY   81  64  57 S7        29.92F
FREMONT        MOSUNNY   86  68  55 S7        29.93F
TEKAMAH        PTSUNNY   85  71  63 S10G17    29.92F HX  90
6HR MIN TEMP:  66; 6HR MAX TEMP:  85;

$$

NEZ050>053-065>068-078-088>093-011900-
SOUTHEAST NEBRASKA

CITY           SKY/WX    TMP DP  RH WIND       PRES   REMARKS
LINCOLN        SUNNY     89  69  51 S12       29.93F HX  93
6HR MIN TEMP:  69; 6HR MAX TEMP:  89;

OMAHA EPPLEY   PTSUNNY   85  69  58 S14       29.93F
6HR MIN TEMP:  70; 6HR MAX TEMP:  85;

BEATRICE       MOSUNNY   87  69  55 S13       29.95F HX  90
FALLS CITY     MOSUNNY   89  69  51 S14       29.96F HX  93
6HR MIN TEMP:  69; 6HR MAX TEMP:  90;

NEBRASKA CITY  PTSUNNY   85  65  51 S7        29.96F
PLATTSMOUTH    PTSUNNY   83  71  66 S6        29.96S
$$

NEZ044-045-051>053-067-011900-
OMAHA AREA

CITY           SKY/WX    TMP DP  RH WIND       PRES   REMARKS
EPPLEY FIELD   PTSUNNY   85  69  58 S14       29.93F
6HR MIN TEMP:  70; 6HR MAX TEMP:  85;

BLAIR          PTSUNNY   84  69  59 SW12G17   29.94S
FREMONT        MOSUNNY   86  68  55 S7        29.93F
MILLARD        PTSUNNY   85  71  63 S7        29.93F HX  90
OFFUTT AFB     PTSUNNY   84  72  65 S8        29.93F HX  90
PLATTSMOUTH    PTSUNNY   83  71  66 S6        29.96S
WAHOO          FAIR      85  70  59 SW12      29.93F HX  90
$$


USA.gov is the U.S. government's official web portal to all federal, state and local government web resources and services.